Aitkin, MN

8:12 AM CDT on July 21, 2017 (GMT -0500)
Aitkin Municipal / Steve Kurtz Field

Weather History for KAIT - March, 2013

Change the Weather History Date:

Friday, March 8, 2013

  Actual Average Record
Temperature  
Mean Temperature 22 °F -  
Max Temperature 35 °F 33 °F 68 °F (2016)
Min Temperature 10 °F 11 °F -15 °F (1986)
Degree Days  
Heating Degree Days 42    
Moisture  
Dew Point 16 °F    
Average Humidity 68    
Maximum Humidity 80    
Minimum Humidity 52    
Precipitation  
Precipitation 0.00 in - - ()
Sea Level Pressure  
Sea Level Pressure 30.20 in    
Wind  
Wind Speed 4 mph (SSE)    
Max Wind Speed 9 mph    
Max Gust Speed -    
Visibility 7 miles    
Events      
Averages and records for this station are not official NWS values.
T = Trace of Precipitation, MM = Missing Value Source: NWS Daily Summary

Daily Weather History Graph

Daily Weather History Graph

Search for Another Location

Airport or City:

Trip Planner

Search our weather history database for the weather conditions in past years. The results will help you decide how hot, cold, wet, or windy it might be!

Date:

Astronomy

Mar. 08, 2013 Rise Set
Actual Time 6:40 AM CST 6:11 PM CST
Civil Twilight 6:10 AM CST 6:41 PM CST
Nautical Twilight 5:35 AM CST 7:16 PM CST
Astronomical Twilight 5:00 AM CST 7:51 PM CST
Moon 4:35 AM CST (3/8) 2:58 PM CST (3/8)
Length of Visible Light 12h 30m
Length of Day
11h 30m
Waning Crescent, 11% of the Moon is Illuminated
Mar 8
Waning Crescent
Mar 11
New
Mar 19
First Quarter
Mar 27
Full
Apr 2
Last Quarter

Hourly Weather History & Observations

Time (CST) Temp. Windchill Dew Point Humidity Pressure Visibility Wind Dir Wind Speed Gust Speed Precip Events Conditions
12:13 AM 15.8 °F - 8.6 °F 73% 30.27 in 10.0 mi Calm Calm - N/A   Clear
12:32 AM 12.2 °F 6.1 °F 6.8 °F 79% 30.26 in 10.0 mi East 3.5 mph - N/A   Clear
12:52 AM 12.2 °F - 5.0 °F 73% 30.26 in 10.0 mi Calm Calm - N/A   Clear
1:13 AM 10.4 °F - 3.2 °F 73% 30.26 in 10.0 mi Calm Calm - N/A   Clear
1:52 AM 10.4 °F 4.0 °F 3.2 °F 73% 30.25 in 10.0 mi SE 3.5 mph - N/A   Clear
2:13 AM 17.6 °F 8.2 °F 8.6 °F 68% 30.25 in 10.0 mi SSE 6.9 mph - N/A   Scattered Clouds
2:32 AM 21.2 °F 12.6 °F 10.4 °F 63% 30.24 in 10.0 mi SSE 6.9 mph - N/A   Clear
2:52 AM 21.2 °F 14.9 °F 10.4 °F 63% 30.24 in 10.0 mi South 4.6 mph - N/A   Clear
3:09 AM 21.2 °F 13.6 °F 10.4 °F 63% 30.24 in 10.0 mi South 5.8 mph - N/A   Scattered Clouds
3:34 AM 21.2 °F 12.6 °F 12.2 °F 68% 30.23 in 10.0 mi South 6.9 mph - N/A   Overcast
3:52 AM 23.0 °F 14.7 °F 12.2 °F 63% 30.23 in 10.0 mi South 6.9 mph - N/A   Overcast
4:12 AM 23.0 °F 13.9 °F 12.2 °F 63% 30.23 in 10.0 mi South 8.1 mph - N/A   Overcast
4:33 AM 23.0 °F 14.7 °F 12.2 °F 63% 30.23 in 10.0 mi South 6.9 mph - N/A   Overcast
4:52 AM 21.2 °F 11.7 °F 12.2 °F 68% 30.23 in 10.0 mi South 8.1 mph - N/A   Overcast
5:12 AM 21.2 °F 12.6 °F 12.2 °F 68% 30.24 in 10.0 mi South 6.9 mph - N/A   Overcast
6:33 AM 21.2 °F 12.6 °F 12.2 °F 68% 30.25 in 10.0 mi South 6.9 mph - N/A   Overcast
6:52 AM 21.2 °F 13.6 °F 12.2 °F 68% 30.25 in 10.0 mi South 5.8 mph - N/A   Overcast
7:13 AM 21.2 °F 14.9 °F 12.2 °F 68% 30.25 in 7.0 mi South 4.6 mph - N/A   Overcast
7:33 AM 21.2 °F 13.6 °F 12.2 °F 68% 30.25 in 7.0 mi SSE 5.8 mph - N/A   Overcast
7:52 AM 21.2 °F 14.9 °F 14.0 °F 74% 30.25 in 7.0 mi SSE 4.6 mph - N/A   Overcast
8:13 AM 21.2 °F 14.9 °F 14.0 °F 74% 30.24 in 7.0 mi South 4.6 mph - N/A   Overcast
8:33 AM 21.2 °F 13.6 °F 15.8 °F 80% 30.24 in 5.0 mi SSE 5.8 mph - N/A   Haze
8:52 AM 21.2 °F 14.9 °F 15.8 °F 80% 30.23 in 4.0 mi South 4.6 mph - N/A   Haze
9:13 AM 21.2 °F 12.6 °F 15.8 °F 80% 30.24 in 4.0 mi South 6.9 mph - N/A   Haze
9:33 AM 23.0 °F 13.9 °F 15.8 °F 74% 30.24 in 4.0 mi South 8.1 mph - N/A   Haze
9:52 AM 23.0 °F 17.0 °F 15.8 °F 74% 30.25 in 4.0 mi South 4.6 mph - N/A   Haze
10:13 AM 24.8 °F 20.5 °F 15.8 °F 69% 30.24 in 4.0 mi South 3.5 mph - N/A   Haze
10:32 AM 24.8 °F 20.5 °F 15.8 °F 69% 30.24 in 4.0 mi South 3.5 mph - N/A   Haze
10:52 AM 24.8 °F 17.9 °F 17.6 °F 74% 30.24 in 4.0 mi SSE 5.8 mph - N/A   Haze
11:13 AM 26.6 °F 21.2 °F 17.6 °F 69% 30.24 in 4.0 mi SE 4.6 mph - N/A   Haze
11:32 AM 26.6 °F 21.2 °F 17.6 °F 69% 30.23 in 5.0 mi SSE 4.6 mph - N/A   Haze
11:52 AM 26.6 °F 21.2 °F 17.6 °F 69% 30.22 in 5.0 mi SSE 4.6 mph - N/A   Haze
12:13 PM 28.4 °F 23.3 °F 19.4 °F 69% 30.22 in 5.0 mi SE 4.6 mph - N/A   Haze
12:32 PM 28.4 °F 21.2 °F 19.4 °F 69% 30.22 in 5.0 mi SE 6.9 mph - N/A   Haze
12:52 PM 28.4 °F 22.2 °F 19.4 °F 69% 30.21 in 5.0 mi SE 5.8 mph - N/A   Haze
1:01 PM 30.2 °F 25.4 °F 19.4 °F 64% 30.21 in 5.0 mi SE 4.6 mph - N/A   Clear
1:21 PM 30.2 °F 24.3 °F 19.4 °F 64% 30.20 in 7.0 mi SE 5.8 mph - N/A   Clear
1:54 PM 33.8 °F 28.6 °F 21.2 °F 60% 30.19 in 5.0 mi SSE 5.8 mph - N/A   Haze
2:13 PM 33.8 °F 29.6 °F 21.2 °F 60% 30.19 in 5.0 mi SSE 4.6 mph - N/A   Haze
2:32 PM 33.8 °F 27.0 °F 21.2 °F 60% 30.18 in 7.0 mi SSE 8.1 mph - N/A   Clear
2:53 PM 33.8 °F 28.6 °F 21.2 °F 60% 30.18 in 7.0 mi South 5.8 mph - N/A   Clear
3:13 PM 35.6 °F 29.9 °F 19.4 °F 52% 30.18 in 7.0 mi South 6.9 mph - N/A   Clear
3:32 PM 35.6 °F 28.6 °F 21.2 °F 56% 30.19 in 7.0 mi South 9.2 mph - N/A   Clear
3:53 PM 35.6 °F 30.7 °F 21.2 °F 56% 30.20 in 7.0 mi SW 5.8 mph - N/A   Clear
4:13 PM 35.6 °F 31.7 °F 21.2 °F 56% 30.19 in 7.0 mi SSW 4.6 mph - N/A   Clear
4:32 PM 35.6 °F 31.7 °F 21.2 °F 56% 30.18 in 7.0 mi SSE 4.6 mph - N/A   Clear
4:53 PM 35.6 °F 29.9 °F 19.4 °F 52% 30.19 in 7.0 mi South 6.9 mph - N/A   Clear
5:13 PM 35.6 °F 31.7 °F 21.2 °F 56% 30.18 in 7.0 mi South 4.6 mph - N/A   Clear
5:32 PM 35.6 °F - 21.2 °F 56% 30.18 in 7.0 mi Calm Calm - N/A   Clear
5:53 PM 33.8 °F - 21.2 °F 60% 30.17 in 7.0 mi Calm Calm - N/A   Clear
6:13 PM 32.0 °F - 21.2 °F 64% 30.16 in 7.0 mi Calm Calm - N/A   Clear
6:32 PM 30.2 °F - 21.2 °F 69% 30.16 in 10.0 mi Calm Calm - N/A   Clear
6:53 PM 30.2 °F - 21.2 °F 69% 30.16 in 7.0 mi Calm Calm - N/A   Clear
7:13 PM 30.2 °F - 21.2 °F 69% 30.15 in 10.0 mi Calm Calm - N/A   Clear
7:32 PM 30.2 °F 26.7 °F 21.2 °F 69% 30.15 in 10.0 mi ESE 3.5 mph - N/A   Clear
7:47 PM 32.0 °F - 21.2 °F 64% 30.13 in 10.0 mi Calm Calm - N/A   Clear
8:01 PM 30.2 °F - 21.2 °F 69% 30.13 in 10.0 mi East 2.3 mph - N/A   Clear
8:21 PM 30.2 °F - 19.4 °F 64% 30.13 in 7.0 mi East 1.2 mph - N/A   Clear
9:14 PM 26.6 °F - 19.4 °F 74% 30.12 in 7.0 mi Calm Calm - N/A   Clear
9:32 PM 24.8 °F - 17.6 °F 74% 30.12 in 7.0 mi Calm Calm - N/A   Clear
9:53 PM 24.8 °F - 17.6 °F 74% 30.11 in 7.0 mi Calm Calm - N/A   Clear
10:13 PM 24.8 °F - 17.6 °F 74% 30.10 in 7.0 mi Calm Calm - N/A   Clear
10:53 PM 21.2 °F 14.9 °F 15.8 °F 80% 30.08 in 7.0 mi ENE 4.6 mph - N/A   Clear
11:13 PM 21.2 °F - 14.0 °F 74% 30.07 in 7.0 mi Calm Calm - N/A   Scattered Clouds
11:32 PM 21.2 °F - 15.8 °F 80% 30.06 in 7.0 mi Calm Calm - N/A   Clear
11:53 PM 23.0 °F - 15.8 °F 74% 30.06 in 7.0 mi Calm Calm - N/A   Clear